Regional Weather Roundup
Issued by NWS Grand Forks, ND

Home | Current Version | Previous Version | Text Only | Print | Product List | Glossary On
Versions: 1 2 3 4 5 6 7 8 9 10 11 12 13 14 15 16 17 18 19 20 21 22 23 24 25 26 27 28 29 30 31 32 33 34 35 36 37 38 39 40 41 42 43 44 45 46 47 48 49 50
000
ASUS43 KFGF 280531
RWRFGF
PRAIRIE TO PINES  WEATHER ROUNDUP
NATIONAL WEATHER SERVICE EASTERN NORTH DAKOTA/GRAND FORKS ND
1200 AM CDT TUE APR 28 2015

 **SATELLITE DATA USED TO AUGMENT SKY COVER AT AUTOMATED STATIONS**
 *****  WEATHER ACROSS EASTERN NORTH DAKOTA  *****

CITY           SKY/WX    TMP DP  RH WIND       PRES   REMARKS
GRAND FORKS    LGT RAIN  46  44  93 N7        30.26R
GRAND FRKS AFB CLOUDY    46  45  93 NE7       30.26S
GRAND FRKS NWS   N/A     43 N/A N/A VRB3        N/A
DEVILS LAKE    MOCLDY    37  36  93 CALM      30.27S VSB<1/4
FARGO          CLOUDY    52  41  66 N16       30.23R
WAHPETON ARPT  MOCLDY    52  37  58 N18       30.21R
$$

 ***** WEATHER ACROSS CENTRAL AND WESTERN NORTH DAKOTA  *****

CITY           SKY/WX    TMP DP  RH WIND       PRES   REMARKS
BISMARCK       CLEAR     42  38  85 CALM      30.31R
MINOT          CLEAR     43  38  82 SW12      30.27S
JAMESTOWN      MOCLDY    43  42  97 NW6       30.26F
MINOT AFB      CLEAR     38  38 100 W8        30.26S
GARRISON         N/A     38  35  89 W6        30.29S
WILLISTON      CLEAR     44  38  79 SW6       30.30R
DICKINSON      PTCLDY    37  33  85 W7        30.30S
HETTINGER      CLEAR     39  35  86 NW3       30.32F
$$

 *****  OTHER AIRPORT OBSERVATIONS IN OUR AREA  *****

CITY           SKY/WX    TMP DP  RH WIND       PRES   REMARKS
WALHALLA       FAIR      36  36 100 CALM      30.27S FOG
GRAFTON AIRPOR FOG       43  43 100 NW3       30.27S VSB 3/4
VALLEY CITY AR LGT RAIN  45  45 100 NW13      30.25F
CANDO          FOG       32  32 100 W6        30.28S VSB 1/4
CAVALIER APRT  FOG       37  37 100 W3        30.27S VSB<1/4
GWINNER          N/A     48  46  93 N12       30.26S
SHEYENNE NWR     N/A     50  43  76 N12       29.95S
ROLLA          NOT AVBL
 ***** THE ABOVE OBSERVATIONS ARE NON NWS ARE NOT QUALITY
       CONTROLLED AND MAY MIS-REPORT RAIN FOR SNOW...
$$

  *****  WEATHER ACROSS NORTHERN MINNESOTA  *****

CITY           SKY/WX    TMP DP  RH WIND       PRES   REMARKS
FLAG ISLAND    DRIZZLE   45  41  87 NW14      30.21S
WARROAD        DRIZZLE   46  43  87 CALM      30.23S
ROSEAU         DRIZZLE   46  43  87 N7        30.23S
HALLOCK          N/A     41  39  93 NW3       30.26S FOG
THF RVR FALLS  CLOUDY    45  43  93 NW8       30.24S
BAUDETTE       CLOUDY    47  40  76 N13       30.21R
WASKISH        CLOUDY    52  43  71 NW7       30.19S
CROOKSTON      DRIZZLE   45  45 100 N10       30.25S
$$
  *****  WEATHER ACROSS CENTRAL AND WEST MINNESOTA  *****

CITY           SKY/WX    TMP DP  RH WIND       PRES   REMARKS
FOSSTON        CLOUDY    46  39  76 N10       30.22F
BEMIDJI        MOCLDY    53  42  66 NW8       30.18R
PARK RAPIDS    PTCLDY    56  33  42 N9        30.16R
ELBOW LAKE     FAIR      50  40  66 NW9       30.17R
WADENA         PTCLDY    46  28  49 NW3       30.16R
DETROIT LAKES  MOCLDY    52  41  66 N10       30.21R
MOORHEAD       CLOUDY    50  39  66 N17       30.24S
FERGUS FALLS   MOCLDY    52  37  58 N14G23    30.20R
MORRIS MN      CLEAR     45  30  57 NW12      30.16R
STAPLES        CLEAR     43  30  61 CALM      30.14S
$$
  *****  WEATHER ELSEWHERE ACROSS MINNESOTA  *****

CITY           SKY/WX    TMP DP  RH WIND       PRES   REMARKS
DULUTH         CLEAR     47  27  45 E5        30.14S
INTRNTL FALLS  PTCLDY    51  36  56 N7        30.15S
ELY            PTCLDY    37  28  70 CALM      30.14S
CLOQUET        PTCLDY    39  28  65 CALM      30.14S
WHEATON        PTCLDY    50  39  66 NW14G21   30.23R
BRAINERD       CLEAR     43  33  68 CALM      30.14S
HIBBING        PTCLDY    39  27  62 CALM      30.14R
ALEXANDRIA     CLEAR     49  30  48 W3        30.16S
SAINT CLOUD    PTCLDY    45  34  65 CALM      30.13F
MINNEAPOLIS    MOCLDY    55  30  38 CALM      30.14S
$$

  *****  WEATHER ACROSS SOUTH DAKOTA  *****

CITY           SKY/WX    TMP DP  RH WIND       PRES   REMARKS
SIOUX FALLS    PTCLDY    46  34  62 CALM      30.19R
BROOKINGS      PTCLDY    46  30  53 CALM      30.20R
WATERTOWN      CLEAR     48  36  63 N12       30.21R
HURON          CLEAR     51  42  71 NW13      30.23R
SISSETON         N/A     52  42  69 N17       30.22R
ABERDEEN       CLOUDY    50  43  77 N15       30.28R
MITCHELL       CLEAR     53  43  68 NW15      30.22R
PIERRE         CLOUDY    48  42  80 N9        30.31R
MOBRIDGE       PTCLDY    41  39  93 N6        30.27F
RAPID CITY     CLOUDY    42  38  85 NW5       30.35R
$$

  *****  SOME WEATHER IN NEARBY STATES *****

CITY           SKY/WX    TMP DP  RH WIND       PRES   REMARKS
GLASGOW MT     CLEAR     43  33  68 SE10      30.28R
GREAT FALLS MT CLEAR     46  32  58 S12       30.21R
CHEYENNE WY    CLOUDY    40  36  86 N3        30.35S
SCOTTSBLUFF NE CLOUDY    47  41  80 NW7       30.34R
OMAHA NE       MOCLDY    46  39  76 N6        30.17S
DES MOINES IA  CLEAR     54  34  46 NW5       30.16R
DAVENPORT IA   CLEAR     46  35  65 CALM      30.12R
CHICAGO IL     CLEAR     40  32  73 CALM      30.11F
EAU CLAIRE WI  FAIR      46  29  51 CALM      30.14S
LA CROSSE WI   CLEAR     50  37  61 CALM      30.12R
$$

  *****  SOME NATIONAL WEATHER *****

CITY           SKY/WX    TMP DP  RH WIND       PRES   REMARKS
LA GUARDIA NY  PTCLDY    52  37  56 NW16G22   29.72R
RALEIGH NC     PTCLDY    46  36  68 CALM      29.93S
ATLANTA GA     CLOUDY    57  39  51 N5        29.88S
NEW ORLEANS LA CLOUDY    69  65  86 SE15G28   29.72F
OKLAHOMA CITY  CLOUDY    50  46  86 N13       30.04R
ALBUQUERQUE NM MOCLDY    47  36  65 SE13      30.22R
SALT LAKE CITY CLEAR     51  39  63 E7        30.22S
LOS ANGELES CA CLEAR     66  47  50 SW10      29.95R
BOISE ID       CLEAR     54  29  38 SE8       30.20R
SEATTLE WA     PTCLDY    63  52  67 CALM      29.93F
$$

*** WEATHER ACROSS MANITOBA...SASKATCHEWAN AND ONTARIO ***
                ***ONTARIO***

CITY           SKY/WX    TMP DP  RH WIND       PRES   REMARKS
GERALDTON      PTCLDY    32  28  86 E2        30.13F
THUNDER BAY    CLEAR     32  30  93 W3        30.15S
SIOUX LOOKOUT  MOCLDY    46  37  71 N3        30.15S
TORONTO        PTCLDY    43  36  75 N13       30.01S
BIG TROUT LK   LGT RAIN  41  41 100 W6        30.10F
PICKLE LAKE    NOT AVBL
DRYDEN         CLOUDY    50  45  81 N8        30.16S
KENORA         LGT RAIN  43  41  93 N8        30.21R
$$
                *** MANITOBA***

CITY           SKY/WX    TMP DP  RH WIND       PRES   REMARKS
BRANDON        PTCLDY    37  27  65 N3        30.27R
DAUPHIN        CLEAR     34  30  86 CALM      30.27R
ISLAND LAKE    CLOUDY    37  34  87 W7        30.17S
PILOT MOUND      N/A     37  36  93 SW3         N/A
THE PAS        CLEAR     34  30  86 SE7       30.21S
THOMPSON       LGT RAIN  34  30  86 NW7       30.21R
WINNIPEG       CLEAR     34  34 100 W3        30.27S
LYNN LAKE      CLEAR     32  32 100 S5        30.18F
CHURCHILL      CLOUDY    27  27 100 NE8       30.20S WCI  18
GILLAM         FOG       32  30  93 W3        30.14S VSB 1
$$
                ***SASKATCHEWAN***

CITY           SKY/WX    TMP DP  RH WIND       PRES   REMARKS
ESTEVAN        PTCLDY    43  34  70 S6        30.28R
KINDERSLEY     PTCLDY    45  28  53 S10       30.12S
LLOYDMINSTER   PTCLDY    43  27  52 SW7       30.08S
PRINCE ALBERT  CLOUDY    41  34  75 E6        30.14F
REGINA         CLEAR     41  34  75 S8        30.24S
YORKTON        CLEAR     41  27  56 S7        30.24F
N. BATTLEFORD  CLEAR     41  30  65 SE8       30.12R
LA RONGE       MOCLDY    45  32  61 SE6       30.10S
SASKATOON      CLEAR     45  32  61 S12       30.15F
SWIFT CURRENT  CLEAR     48  30  49 S17G24    30.17F
$$
NOTE: THESE ARE AUTOMATED STATIONS WITH LIMITED QUALITY CONTROL
      "FAIR" INDICATES FEW OR NO CLOUDS BELOW 12,000 FEET WITH NO
      SIGNIFICANT WEATHER AND/OR OBSTRUCTIONS TO VISIBILITY.
      SKY/WX - SKY CONDITION AND SIGNIFICANT WEATHER.
      TMP - AIR TEMPERATURE.    DP   - DEWPOINT TEMPERATURE.
      RH  - RELATIVE HUMIDITY.  PRES - PRESSURE.
      HX  - HEAT INDEX.         WCI  - WIND CHILL INDEX.
$



USA.gov is the U.S. government's official web portal to all federal, state and local government web resources and services.